Location: Catenanuova
(37.5690°N, 14.6870°E)
Time: 20:41:09
(UTC+02:00)

BlueWalker 3 - Pass Details

Date: 22 May 2025
Orbit: 460 x 472 km, 53.2° (Epoch: 15 June)

Event Time Altitude Azimuth Distance (km) Brightness Sun altitude
Rises 21:30:37 0° 320° (NW) 2,490 7.3 -14.1°
Reaches altitude 10° 21:33:00 10° 333° (NNW) 1,615 5.6 -14.5°
Maximum altitude 21:36:08 27° 33° (NNE) 932 3.4 -15.0°
Enters shadow 21:38:03 17° 79° (E) 1,234 3.6 -15.3°
